Regional Weather Roundup
Issued by NWS Charleston, SC

Current Version | Previous Version | Text Only | Print | Product List | Glossary Off
Versions: 1 2 3 4 5 6 7 8 9 10 11 12 13 14 15 16 17 18 19 20 21 22 23 24 25 26 27 28 29 30 31 32 33 34 35 36 37 38 39 40 41 42 43 44 45 46 47 48 49 50
000 ASUS42 KCHS 290227 RWRCHS REGIONAL WEATHER ROUNDUP NATIONAL WEATHER SERVICE CHARLESTON SC 1000 PM EDT TUE JUL 28 2015 NOTE: "FAIR" INDICATES FEW OR NO CLOUDS BELOW 12,000 FEET WITH NO SIGNIFICANT WEATHER AND/OR OBSTRUCTIONS TO VISIBILITY. NOT ALL STATIONS ARE QUALITY CONTROLLED BY THE NATIONAL WEATHER SERVICE. USE DATA WITH CAUTION...ESPECIALLY DEWPOINT OBSERVATIONS. SCZ027-030-031-034>040-042>050-290300- ...SOUTHEAST SOUTH CAROLINA... CITY SKY/WX TMP DP RH WIND PRES REMARKS N CHARLESTON MOCLDY 81 73 76 E10 29.96S WATERFRONT PRK N/A 82 76 82 E7 29.94R MOUNT PLEASANT LGT RAIN 79 73 83 CALM 29.98R JOHNS ISLAND FAIR 81 75 83 E7 29.97R PINOPOLIS NOT AVBL MONCKS CORNER FAIR 81 72 74 CALM 29.98R SUMMERVILLE FAIR 81 73 78 SE3 29.98R BEAUFORT MCAS MOCLDY 82 76 81 SE6 29.96S BEAUFORT ARPT FAIR 79 77 94 CALM 29.96R HILTON HEAD IS CLOUDY 82 77 83 NE3 29.98R HX 91 WALTERBORO MOCLDY 82 72 69 SE5 29.98R ALLENDALE FAIR 82 72 69 SE6 29.96R ...SOUTHERN MIDLANDS AND PEE DEE... CITY SKY/WX TMP DP RH WIND PRES REMARKS GEORGETOWN NOT AVBL KINGSTREE NOT AVBL ORANGEBURG CLOUDY 83 70 64 SE5 29.96S BARNWELL FAIR 82 79 89 SE7 29.97R HX 93 AIKEN FAIR 79 70 73 NE3 30.01R MANNING FAIR 79 68 69 CALM 29.99R COLUMBIA MOCLDY 80 74 81 E3 29.96R SUMTER MOCLDY 83 72 70 E5 29.96R FLORENCE MOCLDY 82 70 66 S8 29.98R MYRTLE BEACH PTCLDY 81 70 69 E7 29.99S N MYRTLE BEACH PTCLDY 82 71 69 E5 29.97S $$ GAZ063-065-086>088-099>101-113>116-118-119-134>141-150-290300- ...SOUTHEAST GEORGIA... CITY SKY/WX TMP DP RH WIND PRES REMARKS SAVANNAH ARPT PTCLDY 81 75 82 SE5 29.96R HUNTER AAF PTCLDY 81 79 93 E5 29.94R FORT STEWART MOCLDY 80 75 84 CALM 29.95R STATESBORO MOCLDY 82 77 85 CALM 29.97R SYLVANIA CLOUDY 82 77 84 CALM 29.98R HX 91 CLAXTON FAIR 81 75 83 CALM 29.97R ...CSRA...CENTRAL AND FAR SOUTHEAST GEORGIA... CITY SKY/WX TMP DP RH WIND PRES REMARKS THOMSON MOCLDY 80 80 99 CALM 30.01R AUGUSTA-BUSH CLOUDY 82 74 76 CALM 29.94S AUGUSTA-DANIEL CLOUDY 88 72 58 SE5 29.96F HX 94 SWAINSBORO FAIR 82 82 100 CALM 29.97R HX 97 VIDALIA PTCLDY 79 73 83 SE3 29.97R EASTMAN FAIR 83 83 100 CALM 29.98R HX 99 HAZLEHURST FAIR 85 71 63 SE7 29.96R HX 90 ALMA MOCLDY 83 70 64 SE5 29.96R WAYCROSS MOCLDY 84 75 73 SE3 29.97R HX 92 JESUP FAIR 81 77 89 CALM 29.97S BAXLEY FAIR 82 70 65 CALM 29.97R BRUNSWICK PTCLDY 79 77 94 CALM 29.97S SAINT SIMONS CLEAR 82 76 81 NE6 29.95S $$ SCZ027-028-034-036>038-045-046-048>050-GAZ119-141-290300- ...LAKE AND SUPPLEMENTAL COASTAL OBSERVATIONS... STATION/POSITION TIME TEMP WIND PRES WAVE SWELL AIR SEA DIR/SP/G HT/PER HT/PER/DIR (UTC) (F) (DEG/KT/KT) (MB) (FT/S) (FT/S/D) UPR LAKE MARION NOT AVBL WINYAH BAY 0145 81 80/ 7 1014.0R LAKE MURRAY 0100 80 120/ 3/ 4 1013.9S ACE BASIN NERRS 0045 81 CALM 1015.0 FORT PULASKI 0200 82 86 90/ 11/ 12 1015.0R SAPELO ISLAND 0200 80 70/ 3 1014.0S $$ ANZ835-935-AMZ111-154-330-350-352-354-370-450-454-472-290300- ...C-MAN AND BUOY OBSERVATIONS... STATION/POSITION TIME TEMP WIND PRES WAVE SWELL AIR SEA DIR/SP/G HT/PER HT/PER/DIR (UTC) (F) (DEG/KT/KT) (MB) (FT/S) (FT/S/D) BUOY 41004 0150 83 84 80/ 8/ 10 1014.1R 3/ 7 3/ 7 BUOY 41008 0150 82 82 60/ 10/ 12 1014.2R 2/ 4 2/130/ 6 FOLLY BEACH CMAN 0200 82 80/ 11/ 13 1014.9R CAPERS NEARSHORE 0108 82 70/ 12/ 14 1014.8R FRIPP NEARSHORE 0100 82 90/ 12/ 16 1013.6F STATION/POSITION TIME TEMP WIND PRES WAVE SWELL AIR SEA DIR/SP/G HT/PER HT/PER/DIR (UTC) (F) (DEG/KT/KT) (MB) (FT/S) (FT/S/D) 5E ST. MARYS GA 0121 81 N/A 3/ 5 FRYING PAN BUOY 0150 83 84 60/ 10/ 12 1015.3R 4/ 7 3/150/ 7 BUOY 41025 NOT AVBL CAPE LOOKOUT NC 0200 81 80/ 12/ 13 1015.3R BUOY 41002 0150 82 82 220/ 17/ 19 1014.5R 7/ 7 2/ 60/11 BUOY 41010 0120 81 84 230/ 17/ 21 1013.8R ST AUGUSTINE FL 0200 81 82 360/ 10/ 11 1014.7R $$

USA.gov is the U.S. government's official web portal to all federal, state and local government web resources and services.